This demonstration page uses our WeatherBlox Daily Observations layout. Learn more.

Left ArrowRight Arrow

38.20091, -84.87328

Hourly Observations for February 12, 2020

Temp ( °F °C ) Dew Point ( °F °C ) Humidity (%) Winds ( mph kmh ) Pressure ( in mb ) Visibility ( mi km ) Precip ( " mm )
12:53 am 00:53 Clear with Mist and Fog 32 0 30 -1.1 92 92 Calm 30.20 1023 5 8 0.00 0.00
1:53 am 01:53 Clear with Mist and Fog 32 0 30 -1.1 92 92 Calm 30.20 1023 5 8 0.00 0.00
2:53 am 02:53 Clear with Mist and Fog 32 0 30 -1.1 92 92 Calm 30.19 1022 6 10 0.00 0.00
3:53 am 03:53 Clear 33 0.6 31 -0.6 92 92 Calm 30.18 1022 7 11 0.00 0.00
4:53 am 04:53 Clear 33 0.6 31 -0.6 92 92 Calm 30.17 1022 7 11 0.00 0.00
5:53 am 05:53 Clear with Mist and Fog 34 1.1 31 -0.6 89 89 ENE 3 6 30.14 1021 6 10 0.00 0.00
6:53 am 06:53 Clear 35 1.7 31 -0.6 85 85 ENE 3 6 30.16 1022 9 14 0.00 0.00
7:53 am 07:53 Partly Cloudy 35 1.7 31 -0.6 85 85 NE 6 9 30.13 1020 7 11 0.00 0.00
8:53 am 08:53 Mostly Cloudy 37 2.8 31 -0.6 79 79 ENE 6 9 30.13 1020 8 13 0.00 0.00
9:53 am 09:53 Cloudy with Light Rain 38 3.3 31 -0.6 76 76 E 7 11 30.14 1021 8 13 0.00 0.00
10:53 am 10:53 Partly Cloudy 39 3.9 32 0 76 76 ENE 7 11 30.07 1018 9 14 0.00 0.00
11:53 am 11:53 Cloudy with Light Rain 39 3.9 33 0.6 79 79 E 5 7 30.09 1019 7 11 0.00 0.00
12:53 pm 12:53 Cloudy with Light Rain 39 3.9 35 1.7 86 86 E 6 9 30.06 1018 4 6 0.04 1.02
1:53 pm 13:53 Cloudy with Light Rain 39 3.9 36 2.2 89 89 ENE 9 15 29.99 1016 3 5 0.03 0.76
2:03 pm 14:03 Cloudy with Light Rain 39 3.9 37 2.8 93 93 ENE 7 11 30.00 1016 3 5 0.01 0.25
2:28 pm 14:28 Cloudy with Mist and Fog 39 3.9 36 2.2 89 89 ENE 10 17 29.97 1015 3 5 0.01 0.25
2:53 pm 14:53 Cloudy with Mist and Fog 39 3.9 36 2.2 89 89 ENE 13 20 29.93 1014 2 3 0.01 0.25
3:19 pm 15:19 Cloudy with Light Rain 39 3.9 37 2.8 93 93 E 14 22 29.92 1013 2 3 0.01 0.25
3:37 pm 15:37 Cloudy with Mist and Fog 39 3.9 37 2.8 93 93 E 10 17 29.89 1012 2 3 0.01 0.25
3:47 pm 15:47 Cloudy with Light Rain 39 4 37 3 93 93 E 10 17 29.88 1012 2 3 0.02 0.51
3:53 pm 15:53 Cloudy with Light Rain 39 3.9 37 2.8 93 93 E 10 17 29.85 1011 2 2 0.03 0.76
4:10 pm 16:10 Cloudy with Light Rain 39 3.9 37 2.8 93 93 E 12 19 29.85 1011 3 4 0.00 0.00
4:25 pm 16:25 Cloudy with Light Rain 39 3.9 37 2.8 93 93 E 14 22 29.83 1010 2 3 0.01 0.25
4:37 pm 16:37 Cloudy with Mist and Fog 39 3.9 37 2.8 93 93 ENE 14 22 29.82 1010 3 4 0.01 0.25
4:46 pm 16:46 Cloudy with Light Rain 39 3.9 37 2.8 93 93 ENE 10 17 29.80 1009 3 5 0.01 0.25
4:53 pm 16:53 Cloudy with Light Rain 39 3.9 37 2.8 93 93 ENE 14 22 29.78 1008 4 6 0.01 0.25
5:08 pm 17:08 Cloudy with Heavy Rain 39 3.9 37 2.8 93 93 E 10 17 29.81 1009 2 3 0.05 1.27
5:48 pm 17:48 Cloudy with Rain 39 4 37 3 93 93 NE 9 15 29.76 1008 2 3 0.20 5.08
5:53 pm 17:53 Cloudy with Heavy Rain 39 3.9 37 2.8 93 93 NE 9 15 29.75 1007 2 3 0.22 5.59
6:13 pm 18:13 Cloudy with Heavy Rain 38 3.3 37 2.8 97 97 NNE 10 17 29.79 1009 1 2 0.22 5.59
6:27 pm 18:27 Cloudy with Rain 38 3.3 36 2.2 93 93 NNE 10 17 29.79 1009 3 4 0.32 8.13
6:40 pm 18:40 Cloudy with Heavy Rain 38 3.3 36 2.2 93 93 NNE 10 17 29.78 1008 3 5 0.39 9.91
6:53 pm 18:53 Cloudy with Heavy Rain 37 2.8 36 2.2 96 96 N 14 22 29.78 1009 3 5 0.44 11.18
7:26 pm 19:26 Cloudy with Heavy Rain 37 2.8 35 1.7 93 93 ENE 14 22 29.80 1009 2 3 0.22 5.59
7:28 pm 19:28 Cloudy with Heavy Rain 37 2.8 35 1.7 93 93 ENE 17 28 29.80 1009 2 3 0.22 5.59
7:30 pm 19:30 Cloudy with Heavy Rain 37 2.8 35 1.7 93 93 ENE 15 24 29.80 1009 2 3 0.23 5.84
7:32 pm 19:32 Cloudy with Rain 37 2.8 34 1.1 89 89 ENE 17 28 29.80 1009 2 3 0.23 5.84
7:41 pm 19:41 Cloudy with Rain 37 2.8 34 1.1 89 89 E 16 26 29.78 1009 4 6 0.26 6.60
7:53 pm 19:53 Cloudy with Light Rain 37 2.8 34 1.1 89 89 E 16 26 29.72 1007 6 10 0.29 7.37
8:38 pm 20:38 Cloudy with Light Rain 37 2.8 35 1.7 93 93 E 10 17 29.70 1006 10 16 0.02 0.51
8:53 pm 20:53 Cloudy with Light Rain 37 2.8 35 1.7 93 93 E 10 17 29.67 1005 10 16 0.03 0.76
9:14 pm 21:14 Cloudy with Light Rain 38 3.3 35 1.7 89 89 E 7 11 29.69 1005 10 16 0.00 0.00
9:53 pm 21:53 Cloudy 38 3.3 35 1.7 89 89 ESE 7 11 29.67 1005 10 16 0.00 0.00
10:08 pm 22:08 Cloudy with Light Rain 38 3.3 36 2.2 93 93 SE 3 6 29.71 1006 10 16 0.00 0.00
10:53 pm 22:53 Cloudy with Mist and Fog 37 2.8 36 2.2 96 96 WNW 3 6 29.71 1006 3 4 0.01 0.25
11:22 pm 23:22 Cloudy with Mist and Fog 37 2.8 36 2.2 96 96 NNW 3 6 29.70 1006 3 5 0.00 0.00
11:53 pm 23:53 Cloudy 38 3.3 36 2.2 93 93 NNW 3 6 29.68 1005 8 13 0.00 0.00

Powered by AerisWeather